Temperatur und Luftfeuchte

Temperatur und Luftfeuchte

Die letzten 100 Messwerte

Nummer Datum und Zeit Sensor ID Temperatur in Celsius gef├╝hlte Temperatur Luftfeuchte in %
41863 2021-04-12 09:19:19 Terrasse 5.10 4.27 99.90
41862 2021-04-12 08:51:08 Terrasse 4.60 3.72 99.90
41861 2021-04-12 08:23:08 Terrasse 4.20 3.28 99.90
41860 2021-04-12 07:54:56 Terrasse 4.00 3.06 99.90
41859 2021-04-12 07:26:47 Terrasse 3.90 2.95 99.90
41858 2021-04-12 06:58:54 Terrasse 4.00 3.06 99.90
41857 2021-04-12 06:30:46 Terrasse 4.10 3.17 99.90
41856 2021-04-12 06:03:13 Terrasse 4.20 3.28 99.90
41855 2021-04-12 05:34:51 Terrasse 4.30 3.39 99.90
41854 2021-04-12 05:06:41 Terrasse 4.40 3.50 99.90
41853 2021-04-12 04:38:34 Terrasse 4.50 3.61 99.90
41852 2021-04-12 04:10:25 Terrasse 4.50 3.61 99.90
41851 2021-04-12 03:42:18 Terrasse 4.50 3.61 99.90
41850 2021-04-12 03:14:10 Terrasse 4.60 3.72 99.90
41849 2021-04-12 02:46:01 Terrasse 4.70 3.83 99.90
41848 2021-04-12 02:17:53 Terrasse 4.70 3.83 99.90
41847 2021-04-12 01:49:48 Terrasse 4.80 3.94 99.90
41846 2021-04-12 01:21:40 Terrasse 4.80 3.94 99.90
41845 2021-04-12 00:53:33 Terrasse 4.90 4.05 99.90
41844 2021-04-12 00:25:24 Terrasse 5.00 4.16 99.90
41843 2021-04-11 23:57:15 Terrasse 5.10 4.27 99.90
41842 2021-04-11 23:29:08 Terrasse 5.30 4.49 99.90
41841 2021-04-11 22:00:16 Terrasse 5.50 4.71 99.90
41840 2021-04-11 21:01:29 Terrasse 5.70 4.93 99.90
41839 2021-04-11 20:33:23 Terrasse 5.90 5.15 99.90
41838 2021-04-11 20:05:17 Terrasse 6.30 5.59 99.90
41837 2021-04-11 19:37:10 Terrasse 6.60 5.92 99.90
41836 2021-04-11 19:09:02 Terrasse 6.90 6.25 99.90
41835 2021-04-11 18:40:53 Terrasse 7.00 6.36 99.90
41834 2021-04-11 18:12:48 Terrasse 7.50 6.91 99.90
41833 2021-04-11 17:44:40 Terrasse 8.10 7.57 99.90
41832 2021-04-11 17:16:32 Terrasse 8.40 7.90 99.90
41831 2021-04-11 16:48:33 Terrasse 8.90 8.45 99.90
41830 2021-04-11 16:20:32 Terrasse 9.20 8.78 99.90
41829 2021-04-11 15:52:23 Terrasse 9.60 9.22 99.90
41828 2021-04-11 15:24:13 Terrasse 9.60 9.22 99.90
41827 2021-04-11 14:56:05 Terrasse 9.90 9.55 99.90
41826 2021-04-11 14:27:59 Terrasse 10.30 9.99 99.90
41825 2021-04-11 13:59:54 Terrasse 11.20 10.98 99.90
41824 2021-04-11 13:31:48 Terrasse 12.00 11.86 99.90
41823 2021-04-11 13:03:41 Terrasse 12.40 12.30 99.90
41822 2021-04-11 12:35:35 Terrasse 12.80 12.74 99.90
41821 2021-04-11 12:07:33 Terrasse 13.80 13.84 99.90
41820 2021-04-11 11:39:17 Terrasse 12.80 12.74 99.90
41819 2021-04-11 11:11:06 Terrasse 12.20 12.08 99.90
41818 2021-04-11 10:43:00 Terrasse 12.30 12.19 99.90
41817 2021-04-11 10:14:46 Terrasse 12.10 11.97 99.90
41816 2021-04-11 09:46:27 Terrasse 10.70 10.43 99.90
41815 2021-04-11 09:18:11 Terrasse 9.80 9.44 99.90
41814 2021-04-11 08:49:58 Terrasse 9.30 8.89 99.90
41813 2021-04-11 08:21:50 Terrasse 9.00 8.56 99.90
41812 2021-04-11 07:53:39 Terrasse 8.80 8.34 99.90
41811 2021-04-11 07:25:29 Terrasse 8.60 8.12 99.90
41810 2021-04-11 06:57:20 Terrasse 8.60 8.12 99.90
41809 2021-04-11 06:29:10 Terrasse 8.50 8.01 99.90
41808 2021-04-11 06:00:59 Terrasse 8.30 7.79 99.90
41807 2021-04-11 05:32:50 Terrasse 8.30 7.79 99.90
41806 2021-04-11 05:04:42 Terrasse 8.40 7.90 99.90
41805 2021-04-11 04:36:34 Terrasse 8.60 8.12 99.90
41804 2021-04-11 04:08:25 Terrasse 8.60 8.12 99.90
41803 2021-04-11 03:40:17 Terrasse 8.60 8.12 99.90
41802 2021-04-11 03:12:09 Terrasse 8.80 8.34 99.90
41801 2021-04-11 02:43:59 Terrasse 8.80 8.34 99.90
41800 2021-04-11 02:15:52 Terrasse 9.00 8.56 99.90
41799 2021-04-11 01:47:44 Terrasse 9.10 8.67 99.90
41798 2021-04-11 01:19:35 Terrasse 9.10 8.67 99.90
41797 2021-04-11 00:51:26 Terrasse 9.20 8.78 99.90
41796 2021-04-11 00:23:18 Terrasse 9.20 8.78 99.90
41795 2021-04-10 23:55:10 Terrasse 9.20 8.78 99.90
41794 2021-04-10 23:27:01 Terrasse 9.20 8.78 99.90
41793 2021-04-10 22:58:55 Terrasse 9.20 8.78 99.90
41792 2021-04-10 22:30:45 Terrasse 9.30 8.89 99.90
41791 2021-04-10 22:02:36 Terrasse 9.30 8.89 99.90
41790 2021-04-10 21:34:34 Terrasse 9.40 9.00 99.90
41789 2021-04-10 21:06:25 Terrasse 9.40 9.00 99.90
41788 2021-04-10 20:38:17 Terrasse 9.50 9.11 99.90
41787 2021-04-10 20:10:10 Terrasse 9.70 9.33 99.90
41786 2021-04-10 19:42:03 Terrasse 9.80 9.44 99.90
41785 2021-04-10 19:13:57 Terrasse 9.90 9.55 99.90
41784 2021-04-10 18:15:21 Terrasse 10.20 9.88 99.90
41783 2021-04-10 17:47:14 Terrasse 10.20 9.88 99.90
41782 2021-04-10 17:19:04 Terrasse 10.20 9.88 99.90
41781 2021-04-10 16:50:55 Terrasse 10.10 9.77 99.90
41780 2021-04-10 16:22:48 Terrasse 10.10 9.77 99.90
41779 2021-04-10 15:54:39 Terrasse 9.90 9.55 99.90
41778 2021-04-10 15:26:30 Terrasse 9.70 9.33 99.90
41777 2021-04-10 14:28:15 Terrasse 9.40 9.00 99.90
41776 2021-04-10 14:00:24 Terrasse 9.30 8.89 99.90
41775 2021-04-10 13:32:00 Terrasse 9.20 8.78 99.90
41774 2021-04-10 13:03:52 Terrasse 9.20 8.78 99.90
41773 2021-04-10 12:35:45 Terrasse 9.40 9.00 99.90
41772 2021-04-10 11:37:11 Terrasse 9.10 8.67 99.90
41771 2021-04-10 11:09:07 Terrasse 9.20 8.78 99.90
41770 2021-04-10 10:41:12 Terrasse 9.40 9.00 99.90
41769 2021-04-10 10:13:25 Terrasse 9.40 9.00 99.90
41768 2021-04-10 09:45:13 Terrasse 9.50 9.11 99.90
41767 2021-04-10 09:17:05 Terrasse 9.60 9.22 99.90
41766 2021-04-10 08:49:10 Terrasse 9.20 8.78 99.90
41765 2021-04-10 08:21:08 Terrasse 9.00 8.56 99.90
41764 2021-04-10 07:52:56 Terrasse 9.00 8.56 99.90